Volver al catálogo

STARLINK-37415

ActivoComunicacionesVLEO
NORAD 100035·PAYLOAD·🇺🇸 United States

Lanzado Jul 14, 2026 desde Cape Canaveral Space Force Station

Loading…

Próximos Pases (próximas 24 horas)

TLE

ActualizadoSource: Space-Track

Época: Sep 14, 2026, 14:50 UTC

1 A0035U 26161H   26257.61819638 -.00006363  00000-0 -17728-3 0  9996
2 A0035  53.1594  25.4922 0001409  77.8604 282.2556 15.34411083  9703

Sigue STARLINK-37415 en tiempo real con AllMySat

Download on the App Store